FW5161 Weather Reports


time (UTC)temp
F
wind
direction
speed
knots
gust
knots
rain 1hr
in
rain 24hr
in
rain mn
in
humidity
%
barometer
mb
20260506102944 53 153 16.5 27.8 0.00 0.00 0.00 80 1014.5
20260506102212 53 120 16.5 29.5 0.00 0.00 0.00 80 1014.4
20260506101712 53 158 17.4 35.6 0.00 0.00 0.00 80 1014.4
20260506101211 53 193 18.2 35.6 0.00 0.00 0.00 81 1014.4
20260506100712 53 150 17.4 34.8 0.00 0.00 0.00 81 1014.5
20260506100212 54 93 16.5 33.0 0.00 0.00 0.00 80 1014.2
20260506095712 54 150 15.6 30.4 0.00 0.00 0.00 80 1014.2
20260506095212 54 128 14.8 30.4 0.00 0.00 0.00 80 1014.1
20260506094712 55 191 13.0 27.8 0.00 0.00 0.00 79 1013.9
20260506094210 55 171 12.2 26.9 0.00 0.00 0.00 79 1014.0
20260506093710 55 84 11.3 25.2 0.00 0.00 0.00 79 1014.1
20260506093440 55 164 12.2 24.3 0.00 0.00 0.00 78 1014.0
20260506092707 55 247 13.0 27.8 0.00 0.00 0.00 77 1014.1
20260506092206 56 168 14.8 27.8 0.00 0.00 0.00 77 1014.0
20260506091706 56 139 17.4 31.3 0.00 0.00 0.00 75 1014.2
20260506091205 56 154 16.5 31.3 0.00 0.00 0.00 76 1014.1
20260506090708 56 124 16.5 26.9 0.00 0.00 0.00 75 1014.0
20260506090209 56 164 17.4 31.3 0.00 0.00 0.00 75 1014.0
20260506085709 56 139 17.4 31.3 0.00 0.00 0.00 75 1013.9
20260506085210 56 95 17.4 31.3 0.00 0.00 0.00 74 1013.9
20260506084705 56 136 16.5 29.5 0.00 0.00 0.00 76 1013.8
20260506084204 57 182 17.4 29.5 0.00 0.00 0.00 77 1013.7
20260506083203 57 155 16.5 29.5 0.00 0.00 0.00 77 1013.6
20260506082703 57 115 17.4 29.5 0.00 0.00 0.00 76 1013.9
20260506082203 57 128 17.4 32.2 0.00 0.00 0.00 78 1013.7
20260506081702 57 139 16.5 32.2 0.00 0.00 0.00 78 1013.8
20260506081205 57 155 17.4 30.4 0.00 0.00 0.00 79 1013.7
20260506080932 56 177 18.2 31.3 0.00 0.00 0.00 79 1013.9
20260506080431 56 148 17.4 31.3 0.00 0.00 0.00 78 1014.0
20260506073202 57 171 19.1 33.0 0.00 0.00 0.00 79 1013.1
20260506072700 57 99 17.4 29.5 0.00 0.00 0.00 79 1013.2
20260506072431 57 173 18.2 29.5 0.00 0.00 0.00 78 1013.1
20260506071658 57 144 19.1 38.2 0.00 0.00 0.00 78 1013.2
20260506071158 57 143 18.2 38.2 0.00 0.00 0.00 78 1013.1
20260506070657 57 151 18.2 32.2 0.00 0.00 0.00 78 1013.1
20260506070158 57 163 18.2 33.0 0.00 0.00 0.00 79 1013.2
20260506062151 58 157 16.5 32.2 0.00 0.00 0.00 78 1013.0
20260506061652 58 148 17.4 31.3 0.00 0.00 0.00 78 1013.1
20260506061151 58 130 17.4 29.5 0.00 0.00 0.00 78 1013.0
20260506060649 58 166 17.4 29.5 0.00 0.00 0.00 79 1013.3
20260506060149 58 133 16.5 29.5 0.00 0.00 0.00 79 1013.0
20260506051133 59 132 15.6 27.8 0.00 0.00 0.00 78 1013.1
20260506050630 59 145 13.9 26.1 0.00 0.00 0.00 77 1012.9
20260506050128 59 180 15.6 31.3 0.00 0.00 0.00 77 1013.1
20260506045129 59 162 15.6 32.2 0.00 0.00 0.00 77 1012.8
20260506044629 60 133 16.5 31.3 0.00 0.00 0.00 77 1012.9
20260506044134 60 121 16.5 31.3 0.00 0.00 0.00 76 1012.8
20260506043858 60 146 16.5 28.7 0.00 0.00 0.00 76 1012.5
20260506043354 60 156 16.5 28.7 0.00 0.00 0.00 75 1012.4
20260506042629 60 149 16.5 28.7 0.00 0.00 0.00 75 1012.4
20260506042129 60 146 17.4 29.5 0.00 0.00 0.00 75 1012.3
20260506041130 60 135 16.5 27.8 0.00 0.00 0.00 74 1012.2
20260506040855 61 114 14.8 26.9 0.00 0.00 0.00 74 1012.2
20260506040129 61 157 14.8 26.9 0.00 0.00 0.00 73 1012.3
20260506035858 61 144 15.6 28.7 0.00 0.00 0.00 73 1012.3
20260506035131 61 149 16.5 28.7 0.00 0.00 0.00 72 1012.2
20260506034629 61 108 16.5 27.8 0.00 0.00 0.00 72 1012.3
20260506034129 61 153 15.6 27.8 0.00 0.00 0.00 72 1012.2
20260506033628 61 99 14.8 29.5 0.00 0.00 0.00 72 1012.2
20260506033129 61 143 14.8 29.5 0.00 0.00 0.00 71 1012.2
20260506032901 61 162 13.9 29.5 0.00 0.00 0.00 71 1012.1
20260506032359 61 131 14.8 29.5 0.00 0.00 0.00 71 1011.9
20260506031629 62 122 14.8 27.8 0.00 0.00 0.00 70 1012.0
20260506031130 62 102 13.9 26.1 0.00 0.00 0.00 69 1012.0
20260506030628 63 115 13.9 26.1 0.00 0.00 0.00 69 1012.1
20260506030130 63 153 12.2 22.6 0.00 0.00 0.00 68 1011.9
20260506025630 63 117 13.0 20.9 0.00 0.00 0.00 69 1011.9
20260506025130 63 179 13.9 20.9 0.00 0.00 0.00 68 1011.8
20260506024857 63 197 12.2 24.3 0.00 0.00 0.00 68 1011.8
20260506024129 63 194 11.3 24.3 0.00 0.00 0.00 68 1011.8
20260506023629 63 111 9.6 20.9 0.00 0.00 0.00 68 1012.0
20260506023359 63 150 10.4 21.7 0.00 0.00 0.00 69 1012.0
20260506022630 62 149 13.0 22.6 0.00 0.00 0.00 70 1011.9
20260506022358 62 135 13.0 22.6 0.00 0.00 0.00 70 1011.9
20260506021622 62 149 12.2 22.6 0.00 0.00 0.00 70 1012.0
20260506021342 62 161 11.3 22.6 0.00 0.00 0.00 70 1012.0
20260506020609 62 247 9.6 21.7 0.00 0.00 0.00 69 1012.1
20260506020103 63 128 10.4 23.5 0.00 0.00 0.00 70 1012.1
20260506015556 62 137 12.2 23.5 0.00 0.00 0.00 71 1012.2
20260506015050 62 141 13.0 25.2 0.00 0.00 0.00 72 1012.0
20260506014544 61 105 13.0 25.2 0.00 0.00 0.00 72 1012.4
20260506014038 61 113 12.2 21.7 0.00 0.00 0.00 71 1012.4
20260506013539 61 113 13.0 23.5 0.00 0.00 0.00 71 1012.5
20260506013308 61 86 13.0 23.5 0.00 0.00 0.00 72 1012.3
20260506012542 61 118 14.8 25.2 0.00 0.00 0.00 71 1012.4
20260506012307 61 122 14.8 25.2 0.00 0.00 0.00 72 1012.3
20260506011538 61 166 14.8 27.8 0.00 0.00 0.00 71 1012.5
20260506011039 61 144 13.0 27.8 0.00 0.00 0.00 71 1012.5
20260506010538 62 147 11.3 25.2 0.00 0.00 0.00 70 1012.5
20260506010037 62 123 11.3 24.3 0.00 0.00 0.00 70 1012.4
20260506005538 62 114 11.3 24.3 0.00 0.00 0.00 70 1012.4
20260506005038 62 103 11.3 20.9 0.00 0.00 0.00 70 1012.5
20260506004538 62 221 12.2 20.9 0.00 0.00 0.00 70 1012.5
20260506003802 62 135 12.2 24.3 0.00 0.00 0.00 70 1012.6
20260506002809 63 132 9.6 23.5 0.00 0.00 0.00 69 1012.8
20260506002043 62 140 10.4 19.1 0.00 0.00 0.00 69 1012.8
20260506001539 62 138 10.4 20.0 0.00 0.00 0.00 69 1013.0
20260506001039 62 72 9.6 20.0 0.00 0.00 0.00 69 1013.2
20260506000537 63 110 7.8 19.1 0.00 0.00 0.00 68 1013.1
20260506000039 63 85 7.0 16.5 0.00 0.00 0.00 68 1013.1
20260505235537 64 179 5.2 16.5 0.00 0.00 0.00 65 1013.3
20260505235038 67 164 4.3 12.2 0.00 0.00 0.00 64 1013.3
20260505234537 67 327 3.5 7.8 0.00 0.00 0.00 66 1013.3
20260505234037 65 185 3.5 7.0 0.00 0.00 0.00 64 1013.4
20260505233038 67 311 4.3 7.8 0.00 0.00 0.00 65 1013.5
20260505232037 68 330 3.5 7.8 0.00 0.00 0.00 63 1013.6
20260505231538 67 317 3.5 7.0 0.00 0.00 0.00 64 1013.6
20260505231038 68 316 3.5 7.0 0.00 0.00 0.00 62 1013.6
20260505230538 68 333 3.5 9.6 0.00 0.00 0.00 65 1013.6
20260505230254 66 353 3.5 9.6 0.00 0.00 0.00 62 1013.7
20260505225531 67 72 3.5 11.3 0.00 0.00 0.00 64 1013.7
20260505224531 67 314 2.6 7.0 0.00 0.00 0.00 65 1013.8
20260505224031 66 271 2.6 8.7 0.00 0.00 0.00 64 1013.8
20260505223533 67 312 2.6 8.7 0.00 0.00 0.00 65 1013.8
20260505223031 65 319 3.5 7.8 0.00 0.00 0.00 68 1013.9
20260505222530 65 281 3.5 7.8 0.00 0.00 0.00 66 1014.2
20260505222030 67 359 3.5 8.7 0.00 0.00 0.00 66 1013.9
20260505221529 67 334 3.5 8.7 0.00 0.00 0.00 67 1014.0
20260505221029 66 315 4.3 7.8 0.00 0.00 0.00 68 1014.0
20260505220529 67 305 4.3 7.8 0.00 0.00 0.00 65 1014.1
20260505220031 66 326 2.6 6.1 0.00 0.00 0.00 67 1014.2
20260505215531 66 315 2.6 7.0 0.00 0.00 0.00 68 1014.1
20260505215029 66 312 3.5 7.0 0.00 0.00 0.00 69 1014.1
20260505214803 65 309 4.3 7.0 0.00 0.00 0.00 67 1014.1
20260505214030 65 329 3.5 6.1 0.00 0.00 0.00 69 1014.1
20260505213805 65 314 2.6 6.1 0.00 0.00 0.00 69 1014.2
20260505213023 66 330 2.6 7.0 0.00 0.00 0.00 69 1014.2
20260505212746 65 345 2.6 7.0 0.00 0.00 0.00 68 1014.3
20260505212010 66 323 2.6 7.0 0.00 0.00 0.00 68 1014.3
20260505211509 66 350 2.6 7.0 0.00 0.00 0.00 68 1014.3
20260505211009 66 345 2.6 4.3 0.00 0.00 0.00 70 1014.4
20260505210750 65 341 2.6 5.2 0.00 0.00 0.00 70 1014.4
20260505210011 65 53 1.7 5.2 0.00 0.00 0.00 70 1014.4
20260505205510 65 295 2.6 7.0 0.00 0.00 0.00 69 1014.4
20260505205009 63 324 2.6 7.0 0.00 0.00 0.00 73 1014.5
20260505204508 65 349 2.6 5.2 0.00 0.00 0.00 70 1014.6
20260505204005 64 326 2.6 6.1 0.00 0.00 0.00 73 1014.5
20260505203505 63 304 2.6 6.1 0.00 0.00 0.00 70 1014.5
20260505203006 65 309 3.5 6.1 0.00 0.00 0.00 69 1014.6
20260505202505 63 317 3.5 7.0 0.00 0.00 0.00 72 1014.6
20260505202006 63 312 3.5 7.0 0.00 0.00 0.00 73 1014.7
20260505201742 64 322 3.5 7.0 0.00 0.00 0.00 72 1014.6
20260505201005 63 305 3.5 7.0 0.00 0.00 0.00 71 1014.6
20260505200504 63 356 2.6 5.2 0.00 0.00 0.00 73 1014.6
20260505200003 65 307 2.6 6.1 0.00 0.00 0.00 69 1014.5
20260505195505 65 314 1.7 6.1 0.00 0.00 0.00 68 1014.4
20260505195006 65 359 1.7 4.3 0.00 0.00 0.00 73 1014.5
20260505194503 63 230 2.6 4.3 0.00 0.00 0.00 71 1014.5
20260505194006 64 307 3.5 6.1 0.00 0.00 0.00 71 1014.6
20260505193734 62 319 3.5 6.1 0.00 0.00 0.00 74 1014.5
20260505193003 62 307 2.6 6.1 0.00 0.00 0.00 76 1014.5
20260505192503 61 317 2.6 4.3 0.00 0.00 0.00 76 1014.6
20260505192003 60 320 2.6 4.3 0.00 0.00 0.00 77 1014.5
20260505191502 61 348 2.6 6.1 0.00 0.00 0.00 80 1014.6
20260505191230 60 332 3.5 7.0 0.00 0.00 0.00 78 1014.5
20260505190501 60 315 2.6 7.0 0.00 0.00 0.00 78 1014.5
20260505190001 60 329 2.6 6.1 0.00 0.00 0.00 78 1014.5
20260505185501 60 321 2.6 4.3 0.00 0.00 0.00 78 1014.5
20260505185001 60 340 3.5 7.8 0.00 0.00 0.00 77 1014.5
20260505184503 60 310 3.5 7.8 0.00 0.00 0.00 78 1014.5
20260505184235 60 322 3.5 7.0 0.00 0.00 0.00 78 1014.5
20260505183503 59 322 3.5 6.1 0.00 0.00 0.00 79 1014.5
20260505183004 61 312 3.5 4.3 0.00 0.00 0.00 78 1014.5
20260505182502 60 316 3.5 7.0 0.00 0.00 0.00 79 1014.5
20260505182001 60 310 3.5 7.0 0.00 0.00 0.00 78 1014.4
20260505181455 61 320 2.6 5.2 0.00 0.00 0.00 76 1014.3
20260505180949 61 307 2.6 5.2 0.00 0.00 0.00 77 1014.3
20260505180445 61 335 3.5 7.8 0.00 0.00 0.00 78 1014.2
20260505175945 60 321 2.6 7.8 0.00 0.00 0.00 76 1014.3
20260505175445 61 329 3.5 7.8 0.00 0.00 0.00 78 1014.3
20260505174945 60 317 3.5 7.8 0.00 0.00 0.00 79 1014.4
20260505174445 59 321 2.6 6.1 0.00 0.00 0.00 78 1014.3
20260505173945 60 325 2.6 7.0 0.00 0.00 0.00 78 1014.3
20260505173444 59 350 2.6 7.0 0.00 0.00 0.00 78 1014.2
20260505173220 58 305 2.6 8.7 0.00 0.00 0.00 80 1014.3
20260505172446 58 335 2.6 8.7 0.00 0.00 0.00 79 1014.1
20260505171943 58 354 2.6 7.0 0.00 0.00 0.00 79 1014.1
20260505171441 58 25 2.6 7.0 0.00 0.00 0.00 80 1014.1
20260505170941 58 311 3.5 8.7 0.00 0.00 0.00 79 1014.1
20260505170437 58 332 4.3 8.7 0.00 0.00 0.00 80 1014.0
20260505165937 57 336 3.5 8.7 0.00 0.00 0.00 81 1014.1
20260505165709 57 302 2.6 7.0 0.00 0.00 0.00 80 1013.9
20260505165209 56 345 4.3 10.4 0.00 0.00 0.00 80 1014.0
20260505164436 56 121 5.2 12.2 0.00 0.00 0.00 81 1014.0
20260505163937 55 99 6.1 13.9 0.00 0.00 0.00 83 1013.9
20260505163438 54 124 6.1 16.5 0.00 0.00 0.00 83 1013.9
20260505162937 55 243 6.1 19.1 0.00 0.00 0.00 84 1013.9
20260505162437 54 122 7.0 19.1 0.00 0.00 0.00 84 1013.9
20260505162201 54 106 7.8 19.1 0.00 0.00 0.00 84 1013.8
20260505161431 54 150 9.6 23.5 0.00 0.00 0.00 85 1013.8
20260505160931 53 101 9.6 23.5 0.00 0.00 0.00 84 1013.8
20260505160434 53 207 8.7 20.9 0.00 0.00 0.00 85 1013.7
20260505152928 53 91 8.7 20.9 0.00 0.00 0.00 87 1013.5
20260505152431 53 309 9.6 26.1 0.00 0.00 0.00 87 1013.6
20260505151932 53 95 10.4 26.1 0.00 0.00 0.00 88 1013.4
20260505151424 53 205 12.2 25.2 0.00 0.00 0.00 88 1013.3
20260505150411 53 189 10.4 25.2 0.00 0.00 0.00 88 1013.0
20260505140637 53 140 13.9 33.0 0.00 0.00 0.00 85 1012.1
20260505124901 56 137 13.9 27.8 0.00 0.00 0.00 78 1011.2
20260505124401 57 178 13.9 25.2 0.00 0.00 0.00 77 1011.1
20260505124132 57 89 13.9 23.5 0.00 0.00 0.00 76 1011.0
20260505123400 57 145 13.9 23.5 0.00 0.00 0.00 75 1011.3
20260505122401 57 102 13.9 26.9 0.00 0.00 0.00 74 1010.9
20260505121904 58 220 13.0 23.5 0.00 0.00 0.00 72 1010.8
20260505121406 58 110 13.9 25.2 0.00 0.00 0.00 72 1011.0
20260505121134 58 102 13.0 25.2 0.00 0.00 0.00 71 1011.0
20260505120401 58 133 12.2 23.5 0.00 0.00 0.00 70 1010.7
20260505115901 58 135 11.3 23.5 0.00 0.00 0.00 68 1010.9
20260505115401 58 217 12.2 22.6 0.00 0.00 0.00 70 1010.8
20260505114902 58 152 12.2 29.5 0.00 0.00 0.00 69 1010.8
20260505114401 58 137 12.2 29.5 0.00 0.00 0.00 70 1010.8
20260505113901 59 126 13.0 26.1 0.00 0.00 0.00 67 1010.6
20260505113401 59 85 15.6 29.5 0.00 0.00 0.00 65 1010.7
20260505112902 59 114 15.6 29.5 0.00 0.00 0.00 63 1010.7
20260505112401 59 166 16.5 27.8 0.00 0.00 0.00 65 1010.4
20260505111402 60 110 16.5 29.5 0.00 0.00 0.00 61 1010.6
20260505110902 60 116 16.5 29.5 0.00 0.00 0.00 60 1010.3
20260505110626 60 148 16.5 27.8 0.00 0.00 0.00 59 1010.3